Find Starlink 2015

NORAD ID: 47638 Int'l Des: 2021-012 Owner: SPXS Country: US Constellation: starlink operational
LEOCIRCULAR

リアルタイム位置

3D地球を読み込み中...

Starlink 2015について

説明を読み込み中...

次回通過

Passes for default location (London). Set your location on the main map for personalized predictions.

高度履歴

Loading altitude history...

軌道要素

1 47638U 21012U 26123.57941171 .00056123 00000-0 17881-2 0 9997
2 47638 53.1586 77.3160 0001782 131.2595 228.8561 15.32031516289767
Epoch: May 3, 2026 • Age: 14 hours

現在のステータス

高度 470.2 km
速度 7.63 km/s
衛星直下点 14.07°N, 162.17°E
打ち上げ日 Feb 16, 2021
運用期間 5.2 years
タイプ internet

技術仕様

分類 Payload
質量 260.00 kg
乾燥質量 248.00 kg
総質量 260.00 kg
長さ 0.20 m
直径 2.80 m
スパン 9.00 m
形状 Box + pan
製造者 SPXS
バスタイプ Starlink
フェーズステータス In Orbit
所有者/国 SPXS/US

Most Searched